Home   Weather   Salta   Past weeks

Flag for Argentina Past Weather in Salta, Salta, Argentina — Yesterday and Last 2 Weeks

Now
50 °F

Clear.


Feels Like: 48 °F
Forecast: 42 / 68 °F
Wind: 5 mph from Northwest

Location: Salta Aerodrome

Current Time: Apr 28, 2017 at 10:34:55 pm

Latest Report: Apr 28, 2017 at 10:00 pm


Visibility: 10 mi

Pressure: 30.24 "Hg (26.21 "Hg at 1184m altitude)

Humidity: 88%

Dew Point: 46 °F

Location of SaltaLocation

Past Weather in Salta — Graph

°F

Salta Temperature Yesterday

Maximum temperature yesterday: 66 °F (at 3:00 pm)
Minimum temperature yesterday: 41 °F (at 5:00 am)
Average temperature yesterday: 51 °F

High & Low Weather Summary for the Past Weeks

 TemperatureHumidityPressure
High77 °F (Apr 24, 4:00 pm)100% (Apr 16, 10:00 am)30.30 "Hg (Apr 16, 10:00 am)
Low37 °F (Apr 28, 7:00 am)31% (Apr 27, 6:00 pm)29.62 "Hg (Apr 25, 3:00 pm)
Average58 °F83%30.07 "Hg
* Reported Apr 13 9:00 pm — Apr 28 9:00 pm, Salta, Weather by CustomWeather, © 2017

Note: Actual official high and low records may vary slightly from our data, if they occured in-between our weather recording intervals... More about our weather records

Advertising

Salta Weather History for the Previous 24 Hours

Scroll right to see more
 ConditionsComfort  
Time TempWeatherWind HumidityBarometerVisibility
9:00 pm
Fri, Apr 28
55 °FClear.6 mph67%30.21 "Hg10 mi
8:00 pm57 °FClear.5 mph63%30.18 "Hg10 mi
7:00 pm61 °FClear.8 mph52%30.18 "Hg10 mi
6:00 pm66 °FSunny.7 mph52%30.15 "Hg10 mi
5:00 pm70 °FSunny.8 mph50%30.12 "Hg10 mi
4:00 pm72 °FSunny.5 mph47%30.12 "Hg10 mi
3:00 pm70 °FSunny.8 mph40%30.15 "Hg10 mi
2:00 pm68 °FSunny.6 mph46%30.18 "Hg10 mi
1:00 pm64 °FSunny.3 mph56%30.18 "Hg10 mi
12:00 pm61 °FSunny.2 mph59%30.21 "Hg10 mi
11:00 am57 °FSunny.No wind67%30.21 "Hg10 mi
10:00 am50 °FSunny.2 mph88%30.21 "Hg10 mi
9:00 am46 °FPassing clouds.No wind87%30.18 "HgN/A
8:00 am39 °FPassing clouds.5 mph93%30.18 "HgN/A
7:00 am37 °FPassing clouds.No wind93%30.15 "HgN/A
6:00 am39 °FPassing clouds.2 mph100%30.15 "HgN/A
5:00 am39 °FPassing clouds.2 mph100%30.15 "HgN/A
4:00 am39 °FPassing clouds.3 mph93%30.15 "HgN/A
3:00 am41 °FClear.No wind93%30.18 "Hg10 mi
2:00 am41 °FClear.5 mph87%30.18 "Hg10 mi
1:00 am41 °FClear.2 mph93%30.18 "Hg10 mi
12:00 am45 °FPassing clouds.1 mph87%30.18 "HgN/A
11:00 pm
Thu, Apr 27
43 °FClear.2 mph93%30.18 "Hg10 mi
10:00 pm45 °FClear.2 mph87%30.18 "Hg10 mi
Weather by CustomWeather, © 2017

See weather overviewHow to use our weather pages